TimeAKDT,TemperatureF,Dew PointF,Humidity,Sea Level PressureIn,VisibilityMPH,Wind Direction,Wind SpeedMPH,Gust SpeedMPH,PrecipitationIn,Events,Conditions,WindDirDegrees,DateUTC
12:53 AM,52.0,46.0,80,30.03,10.0,West,4.6,-,N/A,,Overcast,270,2013-07-06 08:53:00
1:53 AM,53.1,46.9,80,30.02,10.0,WNW,3.5,-,N/A,,Overcast,290,2013-07-06 09:53:00
2:53 AM,51.1,46.9,86,30.02,10.0,Calm,Calm,-,N/A,,Overcast,0,2013-07-06 10:53:00
3:53 AM,50.0,46.0,86,30.01,10.0,East,3.5,-,N/A,,Mostly Cloudy,80,2013-07-06 11:53:00
4:53 AM,48.9,46.0,90,30.00,10.0,Calm,Calm,-,N/A,,Overcast,0,2013-07-06 12:53:00
5:53 AM,48.9,46.0,90,29.99,10.0,Calm,Calm,-,N/A,,Overcast,0,2013-07-06 13:53:00
6:53 AM,50.0,46.9,89,29.99,10.0,Calm,Calm,-,N/A,,Overcast,0,2013-07-06 14:53:00
7:53 AM,50.0,46.9,89,29.98,10.0,NNE,3.5,-,N/A,,Overcast,20,2013-07-06 15:53:00
8:53 AM,53.1,46.9,80,29.98,10.0,Calm,Calm,-,N/A,,Overcast,0,2013-07-06 16:53:00
9:53 AM,54.0,46.9,77,29.98,10.0,Calm,Calm,-,N/A,,Overcast,0,2013-07-06 17:53:00
10:53 AM,55.0,46.0,72,29.97,10.0,West,3.5,-,N/A,,Overcast,260,2013-07-06 18:53:00
11:53 AM,57.0,46.0,67,29.96,10.0,Calm,Calm,-,N/A,,Overcast,0,2013-07-06 19:53:00
12:53 PM,57.9,45.0,62,29.95,10.0,Calm,Calm,-,N/A,,Overcast,0,2013-07-06 20:53:00
1:53 PM,57.0,46.0,67,29.94,10.0,Calm,Calm,-,0.00,,Overcast,0,2013-07-06 21:53:00
2:53 PM,57.9,45.0,62,29.92,10.0,East,4.6,-,N/A,,Overcast,90,2013-07-06 22:53:00
3:53 PM,57.9,44.1,60,29.90,10.0,South,5.8,-,N/A,,Overcast,180,2013-07-06 23:53:00
4:53 PM,55.9,46.0,69,29.89,10.0,WSW,5.8,-,N/A,,Overcast,240,2013-07-07 00:53:00
5:53 PM,57.9,45.0,62,29.84,10.0,SSE,4.6,-,N/A,,Overcast,160,2013-07-07 01:53:00
6:53 PM,57.0,44.1,62,29.82,10.0,Variable,6.9,-,N/A,,Overcast,0,2013-07-07 02:53:00
7:53 PM,57.0,44.1,62,29.80,10.0,SE,8.1,17.3,N/A,,Overcast,140,2013-07-07 03:53:00
8:53 PM,55.9,44.1,64,29.78,10.0,SE,8.1,-,0.00,,Overcast,140,2013-07-07 04:53:00
9:53 PM,55.0,44.1,67,29.76,10.0,South,8.1,18.4,N/A,,Overcast,170,2013-07-07 05:53:00
10:53 PM,52.0,46.9,83,29.76,10.0,Calm,Calm,-,0.02,Rain,Light Rain,0,2013-07-07 06:53:00
11:53 PM,52.0,46.0,80,29.73,10.0,WNW,3.5,-,0.03,Rain,Light Rain,300,2013-07-07 07:53:00